N733PG KLNS-KFDK

Flight info

Callsign N733PG
Flight time N/A
Altitude 4500
Route DCT
Aircraft PA28/L-SDGRY/S

Departure

Time 2026-04-24 00:07
Airport Lancaster Airport (KLNS)

Arrival

Time N/A
Airport Frederick Municipal Airport (KFDK)
Time Latitude Longitude Altitude Speed Heading
2026-04-23 23:56 40.11859 -76.29842 387 ft 0 kts 123°
2026-04-23 23:59 40.11856 -76.29837 387 ft 1 kts 121°
2026-04-23 23:59 40.11855 -76.29834 387 ft 0 kts 120°
2026-04-24 00:00 40.11855 -76.29830 387 ft 2 kts 77°
2026-04-24 00:00 40.11885 -76.29803 387 ft 5 kts 37°
2026-04-24 00:01 40.11900 -76.29789 387 ft 0 kts 34°
2026-04-24 00:02 40.11930 -76.29794 387 ft 8 kts 326°
2026-04-24 00:02 40.11971 -76.29868 386 ft 11 kts 300°
2026-04-24 00:02 40.11991 -76.29974 384 ft 13 kts 250°
2026-04-24 00:03 40.11955 -76.30086 384 ft 13 kts 248°
2026-04-24 00:03 40.11936 -76.30192 382 ft 11 kts 275°
2026-04-24 00:03 40.11913 -76.30288 380 ft 10 kts 245°
2026-04-24 00:03 40.11915 -76.30353 380 ft 4 kts 359°
2026-04-24 00:04 40.11916 -76.30353 380 ft 0 kts 359°
2026-04-24 00:05 40.11919 -76.30356 380 ft 3 kts 316°
2026-04-24 00:05 40.11926 -76.30361 380 ft 0 kts 338°
2026-04-24 00:05 40.11939 -76.30368 380 ft 9 kts 339°
2026-04-24 00:05 40.12009 -76.30364 380 ft 10 kts 71°
2026-04-24 00:06 40.12090 -76.30090 384 ft 62 kts 68°
2026-04-24 00:06 40.12281 -76.29455 501 ft 81 kts 70°
2026-04-24 00:06 40.12450 -76.28770 725 ft 80 kts 70°
2026-04-24 00:06 40.12690 -76.28102 905 ft 83 kts 62°
2026-04-24 00:07 40.12928 -76.27439 1139 ft 79 kts 58°
2026-04-24 00:07 40.13054 -76.26773 1381 ft 76 kts 89°
2026-04-24 00:07 40.12794 -76.26127 1538 ft 86 kts 135°
2026-04-24 00:07 40.12213 -76.25942 1696 ft 94 kts 192°
2026-04-24 00:08 40.11673 -76.26401 1899 ft 92 kts 226°
2026-04-24 00:08 40.11293 -76.27036 2108 ft 88 kts 240°
2026-04-24 00:08 40.10991 -76.27702 2312 ft 87 kts 251°
2026-04-24 00:08 40.10910 -76.28451 2538 ft 81 kts 268°
2026-04-24 00:09 40.10827 -76.29197 2708 ft 85 kts 260°
2026-04-24 00:09 40.10637 -76.29932 2871 ft 88 kts 252°
2026-04-24 00:09 40.10361 -76.30631 3074 ft 87 kts 250°
2026-04-24 00:09 40.10066 -76.31306 3256 ft 86 kts 239°
2026-04-24 00:10 40.09702 -76.31886 3476 ft 82 kts 231°
2026-04-24 00:10 40.09318 -76.32491 3604 ft 87 kts 234°
2026-04-24 00:10 40.08896 -76.33088 3748 ft 91 kts 230°
2026-04-24 00:10 40.08527 -76.33725 3912 ft 83 kts 252°
2026-04-24 00:11 40.08224 -76.34405 4039 ft 89 kts 245°
2026-04-24 00:11 40.07877 -76.35068 4206 ft 88 kts 243°
2026-04-24 00:11 40.07557 -76.35730 4386 ft 83 kts 250°
2026-04-24 00:11 40.07295 -76.36467 4426 ft 93 kts 253°
2026-04-24 00:12 40.07003 -76.37199 4453 ft 89 kts 249°
2026-04-24 00:12 40.06677 -76.37884 4412 ft 91 kts 243°
2026-04-24 00:12 40.06298 -76.38564 4340 ft 94 kts 240°
2026-04-24 00:12 40.05886 -76.39243 4298 ft 93 kts 237°
2026-04-24 00:13 40.05467 -76.39903 4275 ft 96 kts 239°
2026-04-24 00:13 40.05088 -76.40620 4265 ft 97 kts 245°
2026-04-24 00:13 40.04685 -76.41377 4200 ft 105 kts 237°
2026-04-24 00:13 40.04246 -76.42115 4276 ft 102 kts 239°
2026-04-24 00:14 40.03811 -76.42850 4343 ft 105 kts 240°
2026-04-24 00:14 40.03364 -76.43623 4400 ft 106 kts 239°
2026-04-24 00:14 40.02904 -76.44378 4469 ft 106 kts 238°
2026-04-24 00:14 40.02430 -76.45149 4476 ft 111 kts 238°
2026-04-24 00:15 40.01937 -76.45933 4443 ft 115 kts 236°
2026-04-24 00:15 40.01418 -76.46734 4388 ft 114 kts 237°
2026-04-24 00:15 40.00900 -76.47471 4433 ft 108 kts 230°
2026-04-24 00:15 40.00373 -76.48177 4413 ft 107 kts 233°
2026-04-24 00:16 39.99858 -76.48869 4448 ft 105 kts 230°
2026-04-24 00:16 39.99304 -76.49514 4462 ft 106 kts 228°
2026-04-24 00:16 39.98742 -76.50136 4475 ft 107 kts 227°
2026-04-24 00:16 39.98168 -76.50762 4514 ft 105 kts 225°
2026-04-24 00:17 39.97591 -76.51376 4477 ft 110 kts 226°
2026-04-24 00:17 39.97022 -76.52024 4505 ft 106 kts 231°
2026-04-24 00:17 39.96470 -76.52705 4482 ft 106 kts 232°
2026-04-24 00:17 39.96055 -76.53455 4425 ft 111 kts 245°
2026-04-24 00:18 39.95652 -76.54343 4352 ft 114 kts 238°
2026-04-24 00:18 39.95097 -76.55098 4293 ft 116 kts 227°
2026-04-24 00:18 39.94475 -76.55740 4292 ft 115 kts 223°
2026-04-24 00:18 39.93816 -76.56307 4307 ft 113 kts 219°
2026-04-24 00:19 39.93159 -76.56846 4326 ft 112 kts 215°
2026-04-24 00:19 39.92484 -76.57405 4232 ft 116 kts 224°
2026-04-24 00:19 39.91946 -76.58141 4269 ft 109 kts 234°
2026-04-24 00:19 39.91495 -76.58930 4253 ft 111 kts 243°
2026-04-24 00:20 39.91084 -76.59789 4173 ft 114 kts 243°
2026-04-24 00:20 39.90693 -76.60632 4230 ft 105 kts 245°
2026-04-24 00:20 39.90290 -76.61430 4269 ft 101 kts 245°
2026-04-24 00:20 39.89958 -76.62248 4215 ft 107 kts 251°
2026-04-24 00:21 39.89623 -76.63066 4257 ft 103 kts 245°
2026-04-24 00:21 39.89216 -76.63854 4258 ft 102 kts 240°
2026-04-24 00:21 39.88821 -76.64629 4275 ft 104 kts 243°
2026-04-24 00:21 39.88384 -76.65399 4308 ft 105 kts 237°
2026-04-24 00:22 39.87923 -76.66132 4329 ft 105 kts 236°
2026-04-24 00:22 39.87479 -76.66859 4373 ft 102 kts 240°
2026-04-24 00:22 39.87040 -76.67603 4385 ft 104 kts 239°
2026-04-24 00:22 39.86599 -76.68336 4427 ft 103 kts 238°
2026-04-24 00:23 39.86144 -76.69075 4444 ft 104 kts 238°
2026-04-24 00:23 39.85690 -76.69807 4469 ft 105 kts 238°
2026-04-24 00:23 39.85225 -76.70556 4493 ft 105 kts 234°
2026-04-24 00:23 39.84742 -76.71278 4493 ft 107 kts 233°
2026-04-24 00:24 39.84274 -76.72032 4474 ft 106 kts 243°
2026-04-24 00:24 39.83807 -76.72774 4493 ft 108 kts 231°
2026-04-24 00:24 39.83235 -76.73434 4477 ft 110 kts 225°
2026-04-24 00:24 39.82605 -76.73998 4515 ft 109 kts 221°
2026-04-24 00:25 39.81998 -76.74571 4540 ft 106 kts 226°
2026-04-24 00:25 39.81431 -76.75176 4535 ft 108 kts 227°
2026-04-24 00:25 39.80852 -76.75800 4541 ft 106 kts 230°
2026-04-24 00:25 39.80310 -76.76479 4525 ft 107 kts 231°